Vertical_Velocity
-2 -1 -2 -2 -2 -1 -1 -2 -1 -1 -2 -2 1 -2 -2 -2 -0 -5 -0 -1 -2 -1 -1 -1 -2 -2 -1 -1 3 1 0 2 3 10 -4 18 -0 3 -8 -0 4 6 3 -4 -1
-2 -1 -1 -1 -2 -2 -2 -2 -2 -2 -0 -1 -1 -2 -1 -2 -5 -1 -2 -2 -1 -1 -0 -1 -0 0 -3 -1 -1 3 1 0 13 1 -1 3 1 -8 -3 0 2 -2 1 -3 1
-0 -1 -1 -2 -2 -3 -3 -3 -1 -2 -1 -1 -1 -2 -2 -2 -4 -3 -5 -3 -2 -3 -2 -2 -2 -2 -1 -1 -3 -2 -2 -2 -0 1 -4 -7 5 -1 -7 -2 0 -1 -1 8 -1
-3 -3 -2 -2 -1 -1 -1 -1 -1 -2 -2 -1 -0 -1 -1 -1 -7 -3 -3 -1 -3 -3 -4 -4 -3 -2 -1 -0 -2 -3 -1 -1 -3 -4 -4 -3 -2 -8 -2 -4 -2 -2 -4 -5 -1
-3 -2 -1 -1 -2 -1 -1 -0 -1 -2 -2 -2 -2 -3 -4 -4 -2 -2 -1 -2 -2 -1 -3 -4 -3 -2 -3 -2 -2 1 -2 -1 -4 -5 -1 -4 -1 -2 -4 -4 -5 -4 -2 -1 1
-1 -2 -3 -2 -2 -2 -2 -2 -1 -1 -1 -2 -3 -2 0 -2 -3 -4 -2 0 -4 -4 -2 -4 -3 -3 -3 -5 -4 -1 -2 -2 1 0 -1 -8 -6 -2 2 8 -3 -3 -5 -2 0
-1 -1 -2 -4 -3 -2 -3 -3 -2 -2 0 0 -1 -0 -2 -3 -2 -3 -4 -4 -3 -3 -2 -3 -0 -2 -0 0 -4 -2 -7 -2 -7 -10 -5 0 -7 -18 5 2 -4 -9 -5 -5 -3
-3 -3 -1 -4 -4 -2 -2 -1 -1 0 -0 -1 -2 -1 -2 -1 0 -2 1 -2 -3 -4 -4 -4 -1 -1 -3 -3 -4 -7 -4 1 14 23 14 12 -39 -5 0 -1 -7 -4 -7 -6 -2
-3 -3 -2 -2 -2 -3 -3 -4 -2 -1 -2 0 -0 -2 -4 -5 -1 -2 -6 -8 -4 -2 -3 1 -3 -2 -0 -7 -4 12 6 -4 -18 -3 -4 12 -11 8 -5 -10 -13 -9 -5 -5 -3
-2 -2 -1 -1 -1 -1 -2 -1 -3 1 -3 -3 -4 -3 -4 -2 -4 -2 -3 -2 -2 -2 -10 -7 0 -3 -0 4 1 -2 -8 -7 3 -8 -2 -1 -14 5 5 6 7 6 -2 -11 -7
-3 -3 -1 -2 -4 -0 2 -0 -2 -3 -0 -2 -2 0 2 -3 -4 -4 -3 0 -2 -4 2 -2 -2 12 -4 1 1 1 -0 -1 6 -7 22 -4 -6 -6 3 1 7 -4 -2 -2 -6
-4 -5 -2 -2 -0 -5 -3 0 -2 3 -2 -1 -1 -3 -0 -1 -2 2 -2 -7 -5 -5 -6 1 11 -5 -1 0 -0 4 -2 -8 -6 11 -5 -2 -7 4 3 0 0 -4 -4 -7 2
1 -4 -4 -3 -1 5 -1 -4 -2 -2 1 -3 -0 -1 -4 -3 -4 -6 -8 -3 -4 -4 -3 -0 -1 0 -1 -1 -4 2 3 3 5 3 -9 1 -3 2 3 -4 -3 -2 -5 -1 -7
-4 -1 -0 -2 7 -1 -2 -0 -2 -1 -1 -2 -2 -4 -2 -2 -6 -6 -2 -5 -2 -2 -4 -5 -0 -4 -2 5 2 -11 3 -1 2 10 -2 4 -3 -3 -6 -3 3 -7 -4 -1 -1
0 -4 -1 -1 -2 2 -2 -2 1 1 -3 -3 -2 -1 -3 -5 -3 -2 -6 2 -5 -0 -3 -0 -3 -4 -1 1 6 -9 0 7 4 5 12 -4 8 -2 -4 -14 -15 -5 -1 -3 -3
-3 -1 -3 -1 1 -0 -2 2 -2 0 -3 -4 0 -0 1 -1 -2 -3 -2 0 -4 -3 -2 -0 -3 -0 -4 -4 3 -5 -7 1 3 1 1 -2 2 3 -16 -5 -2 3 3 1 -0
6 -0 0 -2 -4 -6 -4 -0 1 -6 -0 -2 -0 -2 -2 -4 -1 -3 -8 -9 -10 -16 -10 -1 7 3 -0 -8 2 -3 -4 -6 -7 -2 -1 -3 -2 7 4 2 3 5 4 9 -1
1 -2 3 0 -0 -1 0 -0 -4 0 -1 0 -2 -1 -2 1 0 -6 -2 -5 -2 -3 -4 -2 -17 -5 -6 1 -3 4 6 5 2 -1 -3 -1 -1 -0 9 4 4 5 2 8 12
0 -8 -3 3 -4 -2 -3 -4 -2 -2 -1 -1 -3 -3 3 -4 -3 -1 -4 -2 -4 -3 -6 -4 -4 9 -3 -1 -1 -10 -3 6 1 3 8 3 1 1 4 7 6 7 7 7 2
3 2 -4 -1 -3 1 -0 -2 -0 -0 -2 -2 -0 -0 -2 -2 -2 -2 -3 -1 0 -3 -2 -1 -10 -3 0 -5 2 0 1 -8 -1 -2 -2 2 2 -1 -12 -1 7 4 5 7 19
1 -0 -1 -5 -3 1 -4 -3 -2 -2 -2 -1 -1 -1 -2 -4 -2 -3 -3 -3 -2 1 -1 -1 1 -0 0 -2 -2 -9 -7 -5 6 5 2 0 -4 5 -1 -0 2 1 4 7 4
-2 2 1 -2 -2 -2 -3 -3 -2 1 -1 -1 -2 -0 -2 -1 -2 -2 -3 -0 -1 -1 -1 -1 -1 -5 0 2 -0 -1 -0 2 2 -8 -1 7 -4 6 5 -2 2 0 2 -0 8
-3 -2 2 1 0 -3 -1 -1 -3 -3 -2 -2 -2 2 0 -2 -1 -3 -1 -1 0 -1 -1 -1 2 -6 4 -1 2 -2 0 3 6 3 3 3 3 -1 3 0 0 3 2 1 3
-5 -4 -5 -3 2 3 -1 -1 -2 0 -1 0 -2 -0 -1 -1 -2 -0 -1 -1 -1 -0 -2 -1 -1 -1 -2 1 5 -6 2 1 0 4 -3 2 -1 -6 -2 4 -2 2 -1 3 -1
1 -3 1 -4 -1 -1 0 2 -2 1 2 1 -1 -0 1 -1 -2 -2 -2 -0 -0 2 -1 1 -3 1 -1 -1 2 -2 -2 1 0 2 0 1 2 -5 5 -2 6 6 -1 -0 -1
-3 5 -0 1 -1 2 2 0 -0 0 3 2 -0 -1 1 2 0 -1 -2 3 -1 -3 -1 0 -2 -1 -6 -1 2 -4 1 -0 -1 1 1 -0 4 -2 2 -4 5 2 -4 1 -1
2 4 6 1 2 4 -2 0 -0 2 -3 2 0 1 2 0 -1 1 -1 1 3 -2 0 -0 -1 -2 -5 2 -0 -2 -2 -1 -0 -0 0 0 -0 3 -3 3 -12 0 3 5 -0
Height
3150 3148 3145 3143 3141 3138 3136 3133 3130 3127 3124 3121 3118 3115 3112 3108 3106 3103 3101 3100 3097 3095 3093 3091 3090 3089 3088 3087 3088 3088 3088 3087 3090 3090 3087 3089 3086 3085 3084 3084 3091 3094 3094 3091 3093
3149 3147 3145 3142 3140 3137 3135 3132 3129 3125 3122 3119 3116 3113 3109 3105 3103 3101 3100 3097 3095 3093 3091 3089 3087 3085 3083 3082 3082 3083 3082 3085 3085 3081 3079 3080 3075 3073 3077 3079 3083 3084 3087 3086 3086
3149 3146 3144 3141 3139 3136 3134 3131 3127 3124 3120 3117 3113 3110 3106 3103 3101 3099 3098 3095 3093 3090 3087 3085 3083 3081 3080 3079 3076 3077 3076 3077 3076 3073 3070 3071 3074 3070 3070 3072 3076 3078 3079 3079 3075
3149 3147 3144 3141 3138 3135 3132 3128 3125 3122 3118 3114 3111 3107 3104 3102 3102 3099 3096 3094 3090 3087 3084 3081 3079 3077 3076 3075 3072 3073 3073 3072 3069 3068 3066 3066 3064 3063 3064 3064 3066 3068 3071 3071 3068
3149 3146 3143 3140 3137 3133 3129 3126 3122 3119 3116 3112 3109 3105 3102 3100 3099 3097 3094 3091 3087 3084 3080 3078 3075 3073 3072 3071 3070 3068 3067 3066 3063 3063 3062 3060 3058 3057 3053 3056 3060 3059 3060 3062 3062
3148 3145 3141 3138 3135 3131 3127 3123 3119 3116 3113 3110 3106 3103 3101 3100 3097 3093 3090 3087 3084 3080 3076 3074 3071 3069 3067 3067 3066 3066 3063 3062 3061 3058 3057 3055 3053 3051 3054 3051 3049 3049 3050 3053 3055
3147 3144 3140 3136 3133 3129 3125 3120 3116 3113 3110 3107 3104 3101 3100 3100 3095 3091 3087 3084 3080 3077 3074 3072 3069 3068 3065 3064 3062 3061 3059 3056 3055 3056 3054 3050 3045 3046 3048 3046 3043 3044 3045 3046 3048
3146 3142 3138 3133 3129 3125 3122 3118 3114 3111 3108 3105 3102 3100 3099 3098 3094 3090 3087 3082 3079 3075 3072 3069 3067 3065 3064 3062 3062 3057 3058 3055 3056 3055 3052 3048 3031 3042 3042 3041 3038 3038 3038 3038 3039
3143 3139 3135 3130 3126 3123 3119 3116 3112 3109 3106 3103 3102 3100 3098 3095 3092 3089 3084 3079 3075 3073 3070 3068 3065 3063 3062 3060 3061 3060 3057 3053 3049 3048 3046 3045 3033 3034 3037 3036 3033 3032 3030 3030 3030
3141 3137 3133 3128 3124 3121 3117 3114 3110 3108 3105 3103 3102 3101 3099 3096 3091 3088 3082 3078 3074 3071 3065 3064 3064 3062 3063 3062 3060 3057 3054 3048 3046 3043 3040 3036 3031 3030 3032 3030 3028 3026 3025 3022 3022
3139 3135 3131 3127 3123 3120 3117 3113 3110 3108 3104 3102 3103 3100 3097 3094 3089 3085 3081 3077 3073 3070 3070 3068 3067 3066 3063 3062 3058 3055 3052 3047 3041 3039 3036 3032 3026 3023 3024 3023 3021 3017 3014 3014 3014
3137 3133 3129 3125 3123 3119 3115 3111 3107 3106 3103 3103 3101 3098 3095 3091 3089 3087 3084 3079 3074 3071 3070 3070 3066 3063 3062 3059 3057 3053 3048 3041 3036 3037 3033 3025 3017 3017 3016 3013 3011 3007 3004 3002 3005
3136 3132 3128 3125 3122 3119 3114 3109 3105 3102 3102 3102 3100 3097 3094 3090 3086 3082 3079 3076 3073 3070 3068 3067 3067 3063 3060 3056 3053 3048 3044 3039 3036 3031 3029 3022 3016 3014 3013 3009 3004 3000 2997 2996 2996
3134 3130 3128 3124 3123 3117 3112 3108 3104 3101 3101 3103 3099 3095 3094 3089 3085 3082 3080 3078 3073 3070 3066 3066 3064 3061 3058 3056 3051 3041 3041 3036 3029 3029 3026 3025 3020 3012 3010 3006 3000 2992 2989 2988 2990
3132 3129 3126 3122 3120 3117 3113 3108 3104 3102 3102 3105 3101 3097 3092 3092 3090 3086 3080 3078 3073 3070 3069 3068 3063 3060 3057 3054 3049 3043 3038 3030 3023 3023 3023 3022 3020 3014 3008 2999 2993 2985 2980 2983 2984
3130 3127 3123 3121 3119 3116 3112 3108 3105 3106 3104 3103 3101 3097 3094 3090 3087 3085 3082 3079 3073 3071 3068 3065 3063 3061 3056 3052 3048 3043 3034 3022 3020 3019 3020 3021 3019 3015 3009 3002 2994 2988 2983 2981 2982
3128 3125 3122 3119 3117 3115 3111 3109 3107 3103 3107 3104 3099 3095 3092 3089 3086 3083 3078 3075 3071 3067 3067 3065 3064 3061 3057 3050 3047 3042 3033 3027 3026 3023 3024 3020 3019 3022 3015 3006 2996 2990 2983 2978 2979
3125 3123 3119 3116 3115 3113 3111 3109 3107 3107 3105 3103 3099 3095 3093 3090 3088 3085 3083 3080 3078 3075 3071 3068 3062 3060 3058 3055 3050 3045 3044 3042 3040 3032 3024 3021 3023 3022 3017 3010 3001 2994 2986 2980 2977
3122 3120 3118 3116 3114 3111 3110 3107 3107 3107 3105 3102 3098 3095 3094 3090 3089 3086 3082 3081 3079 3076 3075 3070 3064 3062 3058 3056 3054 3047 3044 3042 3038 3027 3024 3022 3024 3021 3016 3010 3005 2999 2991 2985 2980
3122 3119 3117 3115 3112 3109 3109 3107 3106 3105 3103 3101 3098 3095 3093 3091 3089 3087 3085 3083 3081 3078 3074 3073 3066 3060 3058 3057 3057 3053 3049 3043 3040 3039 3035 3026 3025 3027 3017 3013 3009 3004 2998 2993 2988
3121 3119 3117 3114 3111 3110 3107 3107 3106 3103 3101 3100 3097 3094 3092 3090 3088 3086 3086 3083 3081 3078 3075 3072 3071 3063 3059 3058 3055 3052 3048 3047 3044 3040 3039 3036 3033 3031 3025 3019 3014 3011 3005 3001 2998
3119 3118 3114 3112 3111 3108 3106 3105 3104 3102 3099 3098 3096 3092 3089 3088 3085 3084 3085 3083 3080 3077 3074 3073 3069 3062 3060 3058 3056 3055 3053 3050 3048 3044 3039 3035 3038 3031 3028 3025 3019 3016 3013 3008 3005
3116 3115 3112 3110 3108 3105 3103 3102 3101 3099 3097 3095 3093 3091 3088 3086 3086 3083 3082 3082 3079 3077 3074 3073 3070 3064 3059 3059 3056 3054 3054 3052 3048 3046 3042 3041 3042 3037 3031 3027 3024 3020 3018 3015 3012
3114 3112 3111 3108 3106 3103 3100 3099 3098 3096 3094 3093 3091 3089 3087 3085 3083 3081 3081 3080 3076 3074 3073 3071 3068 3067 3064 3060 3058 3052 3052 3051 3049 3047 3044 3044 3042 3039 3034 3030 3028 3025 3022 3020 3020
3111 3109 3108 3105 3104 3101 3100 3097 3095 3095 3093 3091 3089 3087 3085 3082 3080 3078 3078 3077 3075 3073 3071 3070 3065 3063 3059 3055 3053 3051 3049 3049 3047 3047 3046 3043 3041 3038 3035 3032 3029 3026 3026 3024 3023
3107 3106 3103 3101 3100 3098 3096 3095 3093 3093 3092 3089 3087 3085 3082 3081 3079 3077 3075 3073 3072 3070 3068 3067 3064 3060 3054 3052 3051 3048 3047 3046 3045 3044 3043 3043 3042 3039 3037 3035 3032 3030 3029 3028 3027
3102 3100 3097 3096 3094 3094 3093 3092 3090 3088 3088 3086 3084 3082 3081 3079 3076 3074 3072 3071 3069 3067 3066 3064 3063 3060 3053 3052 3048 3047 3046 3044 3043 3042 3042 3042 3042 3040 3039 3039 3037 3033 3032 3031 3029